Temperature
-0 -0 -0 -0 -0 -0 -0 -0 -1 -1 -1 -1 -1 -1 -1 -1 -1 -1 -1 -1 -1 -1 -1 -1 -1 -1 -1 -1 -1 -1 -2 -2 -2 -1 -1 -1 -1 -1 -1 -1 -1 -0 -0
-1 -1 -1 -1 -1 -1 -1 -1 -1 -1 -1 -1 -1 -1 -2 -1 -2 -2 -2 -2 -2 -2 -2 -2 -2 -2 -2 -2 -2 -2 -2 -2 -2 -2 -2 -2 -2 -2 -2 -2 -1 -1 -1
-2 -2 -2 -2 -2 -2 -2 -2 -2 -2 -2 -2 -2 -2 -2 -2 -2 -2 -2 -2 -2 -2 -2 -2 -2 -2 -2 -2 -3 -3 -3 -3 -3 -3 -3 -2 -2 -2 -2 -2 -2 -2 -1
-2 -2 -2 -2 -2 -2 -2 -2 -2 -2 -3 -3 -3 -2 -2 -2 -2 -2 -3 -3 -3 -3 -3 -3 -3 -3 -3 -3 -3 -3 -3 -3 -4 -4 -3 -3 -3 -3 -3 -3 -3 -2 -2
-3 -3 -3 -3 -3 -3 -3 -3 -3 -3 -3 -3 -3 -3 -3 -3 -3 -3 -3 -3 -3 -3 -3 -3 -3 -3 -4 -4 -4 -4 -4 -4 -4 -4 -4 -4 -4 -4 -3 -3 -4 -3 -3
-4 -4 -4 -4 -4 -4 -4 -4 -4 -4 -4 -4 -4 -4 -4 -3 -3 -4 -4 -4 -4 -4 -4 -4 -4 -4 -4 -4 -4 -4 -4 -4 -4 -4 -5 -5 -4 -4 -4 -4 -4 -4 -4
-5 -5 -5 -5 -5 -5 -5 -5 -5 -5 -5 -5 -5 -4 -4 -4 -4 -4 -4 -5 -5 -5 -5 -4 -4 -4 -5 -5 -5 -5 -5 -5 -5 -5 -5 -5 -5 -4 -4 -5 -5 -5 -4
-5 -5 -5 -6 -6 -6 -6 -6 -6 -6 -6 -6 -5 -5 -5 -5 -5 -5 -5 -5 -5 -5 -5 -5 -5 -5 -5 -5 -5 -5 -5 -5 -5 -5 -5 -5 -5 -5 -5 -5 -5 -5 -5
-6 -6 -6 -6 -6 -6 -6 -6 -6 -7 -6 -6 -6 -6 -6 -5 -5 -5 -6 -6 -6 -6 -6 -6 -6 -6 -5 -6 -6 -6 -6 -6 -6 -6 -6 -6 -6 -6 -6 -6 -6 -6 -6
-7 -7 -7 -7 -7 -7 -7 -7 -7 -7 -7 -7 -7 -7 -6 -6 -6 -6 -6 -7 -7 -7 -7 -7 -6 -6 -6 -6 -6 -6 -6 -6 -6 -6 -6 -6 -6 -6 -6 -6 -6 -7 -7
-8 -8 -8 -8 -8 -8 -8 -8 -8 -8 -8 -8 -7 -7 -7 -7 -7 -7 -7 -7 -7 -7 -7 -7 -7 -7 -7 -7 -6 -6 -6 -6 -7 -7 -7 -7 -7 -7 -7 -7 -7 -7 -7
-9 -9 -8 -8 -9 -9 -9 -9 -9 -9 -9 -9 -8 -8 -8 -8 -8 -8 -8 -8 -8 -7 -7 -7 -7 -7 -7 -7 -7 -7 -7 -7 -7 -7 -7 -7 -7 -7 -7 -7 -7 -7 -8
-9 -9 -9 -9 -9 -9 -9 -9 -9 -9 -10 -9 -9 -9 -9 -8 -8 -8 -8 -8 -8 -8 -8 -8 -8 -8 -8 -8 -7 -7 -8 -8 -8 -8 -8 -8 -8 -8 -8 -8 -8 -8 -8
-10 -10 -9 -9 -10 -10 -10 -10 -10 -10 -10 -10 -10 -10 -10 -9 -9 -9 -9 -9 -9 -9 -9 -8 -8 -8 -8 -8 -8 -8 -8 -8 -8 -8 -8 -8 -8 -9 -9 -9 -9 -9 -9
-10 -10 -10 -10 -10 -10 -10 -10 -10 -10 -10 -10 -10 -10 -10 -10 -9 -9 -9 -9 -9 -9 -9 -9 -9 -9 -9 -9 -9 -9 -9 -9 -9 -9 -9 -9 -9 -9 -9 -9 -9 -9 -9
-11 -11 -11 -11 -11 -11 -10 -10 -10 -11 -11 -11 -11 -11 -10 -10 -10 -10 -10 -10 -10 -9 -9 -9 -9 -9 -9 -9 -9 -9 -9 -9 -9 -9 -9 -9 -10 -10 -10 -10 -10 -10 -10
-11 -11 -11 -11 -11 -11 -11 -11 -11 -11 -11 -11 -11 -11 -11 -11 -10 -10 -10 -10 -10 -10 -10 -10 -10 -10 -10 -10 -10 -10 -10 -10 -10 -10 -10 -10 -10 -10 -10 -10 -10 -10 -10
-12 -12 -12 -12 -12 -12 -12 -12 -12 -11 -11 -11 -11 -11 -11 -11 -11 -11 -11 -11 -11 -11 -10 -10 -10 -10 -10 -10 -10 -10 -10 -10 -10 -10 -10 -10 -10 -10 -11 -11 -11 -11 -11
-12 -12 -12 -12 -12 -12 -12 -12 -12 -12 -12 -12 -11 -11 -11 -11 -11 -11 -11 -11 -11 -11 -11 -11 -11 -11 -11 -11 -10 -10 -10 -10 -10 -11 -11 -11 -11 -11 -11 -11 -11 -11 -12
-13 -13 -13 -13 -13 -12 -12 -12 -12 -12 -12 -12 -12 -12 -12 -12 -12 -12 -12 -12 -12 -11 -11 -11 -11 -11 -11 -11 -11 -11 -11 -11 -11 -11 -11 -11 -11 -11 -11 -12 -12 -12 -12
-13 -13 -13 -13 -13 -13 -13 -13 -13 -13 -13 -13 -12 -12 -12 -12 -12 -12 -12 -12 -12 -12 -12 -11 -11 -11 -11 -11 -11 -12 -12 -11 -11 -11 -11 -12 -12 -12 -12 -12 -12 -12 -12
-14 -14 -14 -14 -13 -13 -13 -13 -13 -13 -13 -13 -13 -13 -13 -13 -12 -12 -12 -12 -12 -12 -12 -12 -12 -12 -12 -12 -12 -12 -12 -12 -12 -12 -12 -12 -12 -12 -12 -12 -12 -12 -13
-14 -14 -14 -14 -14 -14 -14 -14 -14 -13 -13 -13 -13 -13 -13 -13 -13 -13 -12 -12 -12 -12 -12 -12 -12 -12 -12 -12 -12 -12 -12 -12 -12 -12 -12 -12 -12 -13 -13 -13 -13 -13 -13
-15 -15 -15 -15 -15 -15 -14 -14 -14 -14 -14 -14 -14 -14 -13 -13 -13 -13 -13 -13 -13 -12 -12 -12 -12 -12 -12 -12 -12 -12 -12 -12 -12 -12 -12 -13 -13 -13 -13 -13 -13 -13 -13
-15 -15 -15 -15 -15 -15 -15 -15 -15 -14 -14 -14 -14 -14 -14 -14 -14 -14 -13 -13 -13 -13 -13 -13 -13 -13 -13 -13 -13 -13 -13 -13 -13 -13 -13 -13 -13 -13 -13 -13 -13 -13 -13
-16 -16 -16 -16 -16 -15 -15 -15 -15 -15 -15 -15 -14 -14 -14 -14 -14 -14 -14 -14 -13 -13 -13 -13 -13 -13 -13 -13 -13 -13 -13 -13 -13 -13 -13 -13 -13 -13 -13 -13 -13 -13 -13
Wind_Speed
3 4 4 4 4 4 5 6 6 6 6 6 6 6 6 7 6 6 6 6 7 6 6 7 7 5 5 4 4 4 3 3 5 5 4 3 3 3 5 6 6 6 6
3 3 4 4 4 5 6 6 6 6 7 7 7 7 7 7 7 7 7 7 8 8 7 7 8 6 6 5 5 5 5 4 5 6 4 4 4 4 4 4 5 5 6
3 3 4 4 5 6 6 6 6 6 7 7 7 8 8 7 7 7 8 8 8 8 8 8 8 8 8 6 6 6 5 5 4 5 5 4 3 3 3 4 4 4 5
3 3 4 5 5 6 6 6 6 6 7 7 7 8 8 8 8 8 8 8 8 8 8 8 8 9 9 8 7 7 6 5 5 5 5 4 3 3 3 3 4 3 3
3 4 5 5 4 5 5 5 6 6 7 7 6 7 6 7 8 8 8 8 8 8 7 8 8 10 12 10 8 7 7 6 5 5 5 4 4 4 4 3 4 4 4
4 5 5 4 4 4 5 5 5 6 6 6 6 7 7 7 11 13 10 8 8 8 8 7 8 9 12 13 13 12 11 9 8 7 6 7 6 5 4 4 4 4 4
5 5 5 4 5 5 5 4 5 5 5 6 7 7 8 9 11 13 13 8 8 8 8 7 7 8 10 8 10 11 11 12 12 9 9 9 8 7 6 6 6 5 5
5 5 5 5 5 5 4 5 5 5 5 6 7 7 8 9 12 12 12 8 7 8 8 8 8 8 8 9 8 7 7 8 9 8 8 8 8 7 7 7 5 4 4
6 6 5 5 5 5 5 6 5 5 5 6 6 7 8 8 11 12 11 6 6 7 8 8 9 9 12 12 9 8 7 7 9 10 10 9 10 10 8 4 4 4 5
7 6 6 5 6 6 6 6 5 5 6 6 7 6 7 8 11 12 11 6 7 7 7 8 11 11 13 13 10 9 9 8 6 5 6 7 7 8 9 7 6 5 4
7 6 6 6 6 6 6 5 5 5 5 5 6 6 6 8 10 12 12 7 7 7 7 7 8 12 13 13 12 9 10 8 6 5 5 4 4 4 5 6 6 6 5
7 6 6 6 5 5 5 5 5 5 5 5 5 5 5 6 9 10 13 12 10 7 7 7 8 12 12 12 10 10 11 8 5 5 5 5 4 5 4 5 5 6 6
7 7 6 6 5 5 5 5 5 4 4 5 5 5 5 5 6 11 12 12 11 7 7 9 10 11 11 9 10 11 8 5 5 5 5 5 4 4 3 3 3 4 4
7 7 5 5 5 5 4 5 5 4 5 5 5 5 5 5 5 5 5 6 8 7 5 7 9 10 8 7 7 6 5 5 6 6 5 4 3 3 3 3 3 3 3
7 6 5 5 5 5 5 5 6 5 6 6 6 5 5 6 7 8 6 5 5 5 5 3 3 4 4 4 4 4 4 5 5 5 5 4 4 4 4 3 3 3 4
6 6 5 4 4 4 4 5 7 7 9 10 10 8 7 8 9 10 10 9 9 8 6 5 5 5 6 6 6 5 5 6 5 5 5 6 5 5 5 4 4 4 5
6 6 5 5 4 5 4 5 5 6 8 9 10 10 9 9 9 9 9 8 8 7 5 5 5 6 6 5 6 6 6 6 5 5 6 6 6 6 5 5 5 5 6
6 7 6 4 4 5 5 5 4 4 5 5 7 10 10 9 8 8 8 6 5 5 4 4 5 5 5 5 5 5 5 5 5 6 6 6 6 6 6 6 6 6 6
6 5 5 5 4 4 4 4 4 4 4 4 4 5 7 7 7 7 5 4 4 4 4 4 5 5 5 5 5 5 5 6 6 6 6 7 7 7 7 7 7 9 8
5 8 7 5 4 4 4 4 4 4 4 4 4 4 4 4 3 3 3 3 3 4 4 5 5 5 5 5 5 5 5 6 6 7 7 7 7 7 8 8 7 7 7
5 6 8 6 4 4 4 4 3 3 4 4 4 5 6 4 3 4 4 4 4 4 4 4 5 5 5 5 5 6 6 6 6 6 6 7 7 7 7 7 7 7 7
5 4 4 4 4 4 4 3 3 3 3 4 4 5 7 3 2 3 3 3 3 3 4 4 4 5 5 5 6 6 6 7 6 6 6 6 7 7 7 7 7 7 7
5 5 5 5 4 6 6 4 3 3 3 4 4 4 4 3 3 3 3 3 2 3 3 3 4 4 4 5 6 7 7 8 7 7 7 7 7 7 7 8 8 8 8
5 5 5 5 4 4 4 4 4 4 3 4 4 3 3 3 3 4 3 3 3 3 3 3 4 5 6 6 6 7 9 9 9 9 9 8 8 7 7 7 8 9 8
4 4 4 4 4 4 4 4 4 4 4 4 4 4 3 3 3 3 3 2 3 3 4 4 4 5 6 7 8 9 10 12 12 10 9 9 9 9 8 8 8 7 8
5 5 4 4 4 4 4 4 5 4 4 4 4 4 4 4 4 3 3 3 3 3 4 4 4 5 7 7 9 10 12 13 13 13 10 8 8 8 8 8 9 8 8
Wind_Direction
237 231 234 236 233 229 228 228 228 227 222 223 222 221 221 223 219 214 217 218 217 224 224 215 219 212 214 217 219 223 229 223 245 266 270 268 262 260 278 279 275 273 277
249 239 243 244 237 233 237 237 231 228 226 223 220 221 223 222 218 216 217 218 218 221 224 221 221 218 217 216 217 223 225 223 233 257 270 264 264 254 258 267 279 270 269
261 243 249 248 240 239 241 242 238 232 230 226 220 221 222 221 220 224 222 220 222 225 222 222 221 213 219 220 217 220 225 231 233 241 257 264 269 261 270 277 278 273 272
277 255 251 250 246 246 246 242 239 235 229 227 226 226 226 224 223 225 226 223 222 227 227 225 223 216 217 217 219 218 219 225 228 232 247 256 263 260 249 260 276 270 274
279 269 263 262 257 251 248 245 242 238 236 233 230 231 231 227 224 220 221 223 220 224 228 229 230 227 223 220 220 213 211 218 221 229 237 247 246 245 241 242 262 277 277
277 272 276 275 267 259 254 250 245 241 239 235 231 230 231 234 233 229 225 221 221 222 227 230 233 235 231 232 232 226 218 216 219 226 236 234 236 238 245 244 254 267 271
283 280 276 270 267 265 263 260 251 245 240 238 235 231 233 238 237 235 230 224 220 221 223 225 233 235 230 227 231 232 234 234 227 224 230 231 230 228 229 242 245 254 258
284 279 274 268 267 269 264 260 257 250 243 243 241 235 236 241 237 239 236 229 220 221 221 221 225 230 228 223 222 224 229 234 233 232 231 232 233 228 225 234 246 257 267
282 277 273 267 267 266 263 260 260 254 250 247 244 238 237 243 239 237 237 227 224 225 225 224 223 227 232 226 219 218 226 237 240 240 239 236 235 234 227 222 233 246 263
286 282 277 268 262 260 260 262 263 255 255 250 250 244 239 241 241 236 233 227 225 227 228 227 229 230 232 232 221 212 219 226 223 226 235 239 233 231 231 222 220 234 256
292 287 279 269 263 260 261 260 258 256 257 250 251 252 245 242 243 237 232 224 223 224 226 227 228 232 234 237 233 220 222 220 213 220 227 226 222 221 223 224 219 224 239
296 290 282 273 269 267 261 264 259 251 254 253 250 255 253 248 246 242 238 237 235 226 226 226 225 229 233 236 235 230 226 222 210 212 220 224 223 226 225 220 228 233 238
301 294 286 281 275 271 263 262 261 251 250 255 250 251 256 251 245 245 243 242 240 233 230 229 230 230 231 232 234 232 225 214 204 214 220 223 218 213 208 218 230 240 252
302 300 295 285 281 275 268 260 254 251 250 252 251 251 256 254 246 240 236 239 236 233 236 233 231 232 230 229 229 228 219 209 208 216 220 219 205 204 214 220 235 241 252
302 301 298 288 278 276 271 260 255 247 245 250 252 249 249 250 247 244 240 232 222 220 212 215 215 212 215 216 218 216 210 209 217 211 211 214 217 219 226 221 227 234 241
303 304 298 292 285 280 278 284 277 270 267 264 263 260 258 256 258 254 249 247 243 232 222 213 214 216 218 217 217 216 213 212 213 213 211 212 215 219 225 226 226 229 239
293 294 293 292 288 284 279 278 286 289 277 272 270 267 266 265 259 256 251 246 242 230 226 219 218 218 219 216 216 215 216 212 207 209 213 213 214 218 221 226 227 231 239
299 296 295 286 284 282 280 280 278 279 288 288 280 271 271 268 262 259 252 243 234 225 220 222 223 221 218 218 217 218 216 210 209 210 212 214 213 216 220 224 226 229 237
303 299 295 290 285 282 282 280 278 273 276 287 300 289 278 271 265 258 250 236 235 236 230 229 228 225 222 221 220 220 218 216 212 211 214 214 215 216 222 224 226 235 239
305 307 312 305 299 295 287 278 273 272 274 277 280 290 295 287 272 265 256 250 242 239 232 233 231 227 223 221 220 220 222 221 216 216 217 217 217 218 222 223 224 228 233
311 313 319 319 312 302 293 279 272 274 276 280 280 277 282 281 268 263 260 253 247 244 240 237 235 228 224 221 220 222 224 227 222 219 219 219 218 220 222 223 225 226 231
316 313 315 311 312 313 310 303 293 284 284 288 296 297 291 296 289 282 276 267 256 243 234 231 234 231 224 220 219 223 227 229 227 222 222 222 222 220 221 222 223 224 226
322 321 322 321 318 319 323 319 307 299 296 295 296 301 306 304 298 291 284 280 273 259 247 235 234 240 237 231 226 222 225 229 228 220 220 222 221 220 220 222 222 224 226
324 318 315 317 320 318 317 317 310 302 300 302 303 300 297 298 295 291 284 276 276 274 264 251 241 238 241 243 241 237 235 235 231 225 218 218 219 221 222 223 225 226 227
324 318 315 314 317 316 314 315 312 307 306 306 304 304 304 303 300 296 290 278 275 275 273 267 254 244 241 243 246 246 245 245 244 235 223 215 216 218 220 223 226 229 231
326 319 315 314 313 311 309 310 312 308 306 305 303 301 301 300 298 298 298 291 284 287 284 279 263 256 256 256 253 253 254 251 248 241 227 210 213 218 218 223 222 225 229
Height
1458 1459 1460 1461 1462 1462 1463 1464 1465 1467 1467 1468 1469 1470 1472 1473 1474 1475 1476 1477 1479 1480 1482 1484 1485 1487 1489 1490 1491 1492 1493 1494 1493 1492 1494 1495 1496 1497 1497 1498 1498 1498 1498
1453 1454 1454 1455 1456 1456 1457 1458 1459 1460 1461 1462 1463 1464 1465 1467 1468 1468 1469 1471 1472 1474 1476 1477 1479 1480 1482 1484 1485 1486 1487 1488 1488 1487 1488 1489 1490 1491 1492 1492 1492 1492 1492
1449 1449 1449 1450 1450 1450 1451 1452 1453 1453 1454 1455 1456 1457 1458 1459 1461 1462 1463 1465 1466 1468 1469 1471 1472 1474 1475 1477 1478 1479 1480 1482 1482 1482 1482 1483 1484 1485 1486 1486 1486 1486 1486
1444 1444 1444 1444 1444 1444 1445 1445 1446 1447 1447 1448 1449 1450 1451 1452 1454 1455 1457 1458 1459 1461 1462 1464 1465 1467 1468 1470 1472 1473 1474 1475 1476 1476 1477 1477 1478 1479 1480 1480 1480 1480 1481
1440 1439 1438 1438 1438 1438 1438 1439 1439 1440 1440 1441 1442 1443 1444 1445 1446 1448 1449 1451 1452 1454 1455 1457 1458 1460 1462 1464 1465 1466 1468 1469 1470 1470 1470 1471 1472 1473 1474 1474 1474 1475 1475
1435 1434 1433 1433 1433 1432 1432 1432 1433 1433 1434 1434 1435 1436 1437 1438 1439 1441 1443 1444 1446 1447 1448 1450 1452 1453 1455 1457 1459 1460 1462 1462 1463 1464 1464 1465 1465 1467 1468 1469 1469 1469 1469
1430 1429 1428 1427 1427 1426 1426 1426 1426 1426 1427 1427 1428 1429 1429 1431 1433 1434 1436 1437 1438 1440 1442 1443 1445 1446 1448 1450 1451 1453 1455 1456 1457 1458 1458 1459 1460 1461 1463 1463 1463 1463 1463
1425 1424 1423 1422 1421 1421 1420 1420 1420 1420 1420 1420 1420 1421 1423 1424 1426 1427 1429 1430 1431 1432 1434 1436 1438 1439 1441 1443 1444 1446 1447 1448 1450 1451 1451 1452 1454 1456 1457 1458 1458 1458 1457
1420 1418 1417 1416 1416 1415 1414 1414 1414 1414 1413 1413 1414 1415 1416 1417 1419 1420 1422 1423 1424 1425 1427 1429 1431 1432 1434 1436 1438 1439 1440 1441 1443 1444 1445 1446 1448 1449 1450 1451 1452 1452 1451
1414 1413 1412 1411 1410 1409 1408 1408 1408 1408 1407 1407 1407 1408 1409 1410 1412 1413 1415 1416 1417 1418 1420 1421 1424 1425 1427 1429 1431 1432 1433 1434 1436 1437 1439 1440 1441 1443 1444 1445 1446 1446 1446
1410 1408 1407 1406 1405 1404 1403 1403 1402 1402 1402 1401 1401 1402 1402 1403 1404 1406 1407 1409 1410 1411 1413 1414 1416 1418 1420 1422 1424 1425 1426 1428 1429 1431 1432 1433 1434 1436 1437 1439 1440 1441 1441
1405 1403 1401 1400 1399 1398 1398 1397 1397 1396 1396 1395 1395 1395 1396 1397 1398 1399 1401 1403 1404 1405 1406 1408 1410 1412 1414 1416 1418 1419 1420 1422 1423 1424 1425 1426 1428 1429 1431 1432 1433 1434 1435
1401 1398 1396 1395 1394 1393 1393 1392 1391 1391 1390 1390 1389 1389 1389 1391 1391 1393 1394 1396 1397 1399 1400 1402 1404 1406 1407 1409 1411 1413 1414 1416 1417 1418 1418 1420 1421 1423 1425 1426 1427 1428 1428
1396 1394 1392 1390 1389 1388 1388 1387 1386 1386 1385 1385 1384 1384 1384 1384 1385 1387 1388 1389 1391 1392 1394 1396 1398 1399 1401 1403 1404 1406 1407 1409 1410 1411 1412 1414 1415 1417 1418 1419 1420 1421 1421
1393 1390 1388 1386 1385 1384 1383 1382 1381 1381 1381 1381 1380 1380 1379 1379 1380 1381 1382 1383 1384 1386 1387 1389 1391 1392 1394 1396 1397 1399 1400 1402 1403 1404 1406 1407 1409 1410 1412 1413 1414 1414 1414
1388 1386 1384 1383 1381 1380 1378 1377 1377 1377 1376 1376 1376 1375 1374 1375 1375 1376 1377 1378 1379 1380 1382 1382 1384 1385 1387 1388 1390 1392 1393 1395 1397 1398 1399 1401 1402 1404 1405 1406 1407 1407 1407
1385 1383 1381 1379 1377 1376 1374 1373 1372 1371 1371 1371 1371 1370 1370 1370 1370 1371 1371 1372 1373 1375 1375 1375 1377 1379 1380 1382 1384 1385 1387 1388 1390 1392 1393 1394 1395 1397 1398 1399 1400 1400 1401
1382 1380 1377 1375 1374 1372 1371 1369 1368 1367 1365 1365 1365 1365 1365 1365 1365 1365 1366 1367 1367 1368 1368 1369 1371 1372 1374 1376 1377 1379 1380 1382 1383 1385 1386 1387 1388 1390 1391 1392 1393 1393 1394
1378 1376 1374 1372 1370 1369 1367 1366 1365 1363 1362 1361 1360 1360 1360 1360 1360 1360 1361 1361 1361 1361 1362 1363 1365 1366 1367 1369 1370 1372 1373 1375 1376 1377 1379 1380 1381 1382 1383 1384 1385 1386 1387
1375 1373 1371 1369 1367 1366 1364 1362 1361 1360 1359 1357 1356 1356 1355 1355 1354 1354 1355 1355 1355 1355 1356 1357 1359 1360 1361 1362 1364 1365 1366 1368 1369 1370 1371 1373 1374 1375 1376 1377 1378 1379 1379
1372 1370 1368 1366 1365 1363 1361 1359 1358 1357 1356 1354 1353 1353 1352 1351 1350 1349 1349 1349 1349 1350 1350 1351 1352 1353 1355 1356 1357 1358 1359 1360 1361 1363 1364 1365 1367 1368 1369 1370 1371 1372 1372
1369 1367 1365 1364 1362 1360 1358 1357 1355 1354 1353 1351 1350 1349 1348 1347 1346 1345 1344 1344 1344 1345 1345 1346 1346 1347 1348 1349 1350 1351 1352 1353 1354 1355 1357 1358 1359 1361 1362 1363 1364 1365 1365
1367 1365 1363 1361 1359 1357 1356 1354 1353 1351 1350 1349 1347 1346 1344 1343 1342 1341 1340 1340 1340 1340 1340 1340 1340 1340 1341 1342 1343 1344 1345 1345 1347 1348 1349 1350 1352 1353 1354 1355 1356 1357 1358
1365 1362 1360 1358 1357 1355 1353 1352 1350 1349 1347 1346 1344 1343 1341 1340 1339 1338 1337 1336 1335 1335 1334 1334 1334 1334 1335 1336 1336 1337 1338 1338 1339 1340 1342 1343 1344 1345 1347 1348 1349 1350 1351
1363 1360 1358 1356 1355 1353 1351 1350 1348 1346 1345 1343 1342 1340 1339 1337 1336 1334 1333 1332 1331 1330 1329 1329 1329 1329 1328 1329 1329 1330 1330 1331 1332 1333 1334 1336 1337 1338 1340 1341 1342 1343 1344
1361 1359 1357 1355 1353 1351 1349 1348 1346 1344 1343 1341 1339 1338 1336 1334 1333 1331 1329 1328 1327 1326 1325 1324 1324 1323 1323 1322 1322 1322 1322 1323 1324 1326 1327 1329 1330 1331 1333 1334 1335 1336 1337